User: anonymous   Login
Location: Newark
(30.1000°N, 109.4667°E)
Time: 09:44:08
(UTC+00:00)
Language:

Transit 2A - Orbit

View from above orbital plane
View from above orbital plane
View from above satellite
View from above satellite

Ground track
Ground track

The orbit data is extracted from the following two-line orbital elements,

1    45U 60007A   20050.15557774 -.00000023  00000-0  21131-4 0  9998
2    45  66.6963 335.3059 0250781  41.1726 320.7994 14.33666848105604
Epoch (UTC): 19 February 2020 03:44:01
Eccentricity: 0.0250781
inclination: 66.6963°
perigee height: 600 km
apogee height: 959 km
right ascension of ascending node: 335.3059°
argument of perigee: 41.1726°
revolutions per day: 14.33666848
mean anomaly at epoch: 320.7994°
orbit number at epoch: 10560

The dashed part of the orbit path shows where the satellite is in the earth's shadow,  

DLR